Regional Weather Roundup
Issued by NWS

Home | Current Version | Previous Version | Text Only | Print | Product List | Glossary Off
Versions: 1 2 3 4 5 6 7 8 9 10 11 12 13 14 15 16 17 18 19 20 21 22 23 24 25 26 27 28 29 30 31 32 33 34 35 36 37 38 39 40 41 42 43 44 45 46 47 48 49 50

000
ASUS43 KLSX 290507
RWRMO

WEATHER SUMMARY FOR MISSOURI
NATIONAL WEATHER SERVICE SPRINGFIELD MO
1200 AM CDT WED MAR 29 2017

NOTE: "FAIR" INDICATES FEW OR NO CLOUDS BELOW 12,000 FEET WITH NO
       SIGNIFICANT WEATHER AND/OR OBSTRUCTIONS TO VISIBILITY.
       CURRENT SKY AND/OR WEATHER CONDITIONS ARE NOT AVAILABLE FOR
       CHILLICOTHE AND FARMINGTON.

MOZ001>031-035>038-043-044-053-054-290600-
...NORTHERN AND WESTERN MISSOURI...

CITY           SKY/WX    TMP DP  RH WIND       PRES   REMARKS
KANSAS CTY INT CLOUDY    52  49  89 E18G28    29.97F
KANSAS C DTWN  CLOUDY    54  49  83 NE14G30   29.96F
LEE`S SUMMIT   MOCLDY    53  50  89 E20G26    29.96F
ST JOSEPH      CLOUDY    52  49  89 MISG      30.02F
CHILLICOTHE      N/A     52  48  86 E8        30.09R
KIRKSVILLE     CLOUDY    50  46  86 E9        30.10R

$$
MOZ066>068-077>081-088>096-101>105-290600-
...SOUTHWEST MISSOURI...

CITY           SKY/WX    TMP DP  RH WIND       PRES   REMARKS
SPRINGFIELD    CLOUDY    58  50  75 E23G29    29.89F
JOPLIN         MOCLDY    62  53  72 E18G24    29.83F

$$
MOZ032>034-039>042-045>050-055>058-069>072-290600-
...CENTRAL MISSOURI...

CITY           SKY/WX    TMP DP  RH WIND       PRES   REMARKS
COLUMBIA       CLOUDY    53  49  86 E12       30.06S
JEFFERSON CITY CLOUDY    57  49  74 E10       30.06S
ROLLA          CLOUDY    53  48  83 E10       30.04S
SEDALIA        CLOUDY    55  49  80 E14       30.03F
WHITEMAN AFB   MOCLDY    54  54  99 E12G20    29.99F
WARRENSBURG    MOCLDY    54  48  82 NE15G22   29.99F
OSAGE BEACH    CLOUDY    54  48  80 E8        30.04S

$$
MOZ051-052-059>065-290600-
...EAST CENTRAL MISSOURI...

CITY           SKY/WX    TMP DP  RH WIND       PRES   REMARKS
ST LOUIS INTL  CLOUDY    55  46  71 E12       30.07F
SPIRIT OF STL  CLOUDY    54  48  80 E9        30.07F
ST CHARLES     CLOUDY    53  48  83 NE10      30.08F

$$
MOZ072>076-082>087-097>100-106>115-290600-
...SOUTH CENTRAL AND SOUTHEAST MISSOURI...

CITY           SKY/WX    TMP DP  RH WIND       PRES   REMARKS
CAPE GIRARDEAU CLOUDY    54  49  83 NE6       30.05F
FARMINGTON     CLOUDY    52  48  86 E3        30.07F
POPLAR BLUFF   CLEAR     55  51  86 NE10      30.03F
WEST PLAINS    PTCLDY    55  49  80 E13       30.01F

$$




USA.gov is the U.S. government's official web portal to all federal, state and local government web resources and services.